SCOUT G-1 DEB

基本信息
目录编号:
22707
目录名称:
SCOUT G-1 DEB
国际标识:
1993-041D
轨道中心:
EARTH
物体状态:
在轨
发射日期:
1993-06-25 UTC
轨道信息
数据来源: 国际轨道数据
星历时间: 2026-07-13T21:34:04+0800
半长轴: 7177.618km
偏心率: 0.0136685
轨道倾角: 90.139°
近地点辐角: 206.452°
升交点赤经: 300.397°
平近点角: 152.966°
近地点: 701.373km
远地点: 897.589km
周期: 100.863分钟
每日圈数: 14.276846
详细信息
发射场:
AFWTR
轨道高度:
LEO
数据来源:
AOE Integration Group
参考系:
TEME
时间系统:
UTC
历元类型:
SGP4
2D轨道图
3D轨道图
轨道高度分析图
轨道倾角分析图
轨道综合分析图
查看轨道综合分析图